Location: Seale
(32.2974°N, 85.1688°W)
Time: 09:51:45
(UTC+00:00)

Hubble Space Telescope - Pass Details

Date: 22 January 2021
Orbit: 536 x 539 km, 28.5° (Epoch: 26 February)

Event Time Altitude Azimuth Distance (km) Brightness Sun altitude
Rises 01:52:21 0° 267° (W) 2,676 5.4 -35.3°
Reaches altitude 10° 01:54:43 10° 259° (W) 1,785 4.2 -35.8°
Enters shadow 01:55:06 12° 257° (WSW) 1,644 3.9 -35.9°
